Alexandria, LA

3:13 AM CDT on April 23, 2017 (GMT -0500)
Alexandria International

Weather History for KAEX - December, 2013

Change the Weather History Date:

Monday, December 9, 2013

  Actual Average Record
Temperature  
Mean Temperature 39 °F 51 °F  
Max Temperature 42 °F 61 °F 83 °F (2007)
Min Temperature 36 °F 41 °F 18 °F (2006)
Degree Days  
Heating Degree Days 26 15  
Month to date heating degree days 118 124  
Since 1 July heating degree days 494 449  
Moisture  
Dew Point 38 °F    
Average Humidity 95    
Maximum Humidity 100    
Minimum Humidity 89    
Precipitation  
Precipitation 0.22 in 0.26 in 3.45 in (1923)
Month to date precipitation 0.56 2.30  
Year to date precipitation 53.05 52.10  
Snow  
Snow 0.00 in - 0.00 in ()
Month to date snowfall 0.0  
Since 1 July snowfall 0.0  
Snow Depth 0.00 in    
Sea Level Pressure  
Sea Level Pressure 30.17 in    
Wind  
Wind Speed 7 mph (North)    
Max Wind Speed 13 mph    
Max Gust Speed 17 mph    
Visibility 7 miles    
Events Rain    
T = Trace of Precipitation, MM = Missing Value Source: NWS Daily Summary

Daily Weather History Graph

Daily Weather History Graph

Search for Another Location

Airport or City:

Trip Planner

Search our weather history database for the weather conditions in past years. The results will help you decide how hot, cold, wet, or windy it might be!

Date:

Astronomy

Dec. 09, 2013 Rise Set
Actual Time 6:57 AM CST 5:07 PM CST
Civil Twilight 6:31 AM CST 5:34 PM CST
Nautical Twilight 6:00 AM CST 6:04 PM CST
Astronomical Twilight 5:31 AM CST 6:34 PM CST
Moon 12:13 PM CST (12/9) No Moon Set
Length of Visible Light 11h 03m
Length of Day
10h 09m
Waxing Crescent, 51% of the Moon is Illuminated
Dec 9
Waxing Crescent
Dec 17
Full
Dec 25
Last Quarter
Jan 1
New
Jan 7
First Quarter

Hourly Weather History & Observations

Time (CST) Temp. Windchill Dew Point Humidity Pressure Visibility Wind Dir Wind Speed Gust Speed Precip Events Conditions
12:53 AM 42.1 °F 40.2 °F 39.0 °F 89% 30.14 in 9.0 mi North 3.5 mph - N/A   Overcast
1:46 AM 42.8 °F - 39.2 °F 87% 30.12 in 10.0 mi Calm Calm - N/A   Overcast
1:53 AM 42.1 °F 40.2 °F 39.9 °F 92% 30.14 in 10.0 mi North 3.5 mph - N/A   Overcast
2:22 AM 42.8 °F 39.3 °F 39.2 °F 87% 30.12 in 9.0 mi North 5.8 mph - N/A   Overcast
2:32 AM 42.8 °F 39.3 °F 39.2 °F 87% 30.12 in 9.0 mi NNW 5.8 mph - N/A   Overcast
2:53 AM 42.1 °F 38.4 °F 39.9 °F 92% 30.14 in 9.0 mi North 5.8 mph - N/A   Overcast
3:53 AM 42.1 °F 37.7 °F 39.9 °F 92% 30.14 in 5.0 mi North 6.9 mph - N/A   Overcast
4:53 AM 41.0 °F 35.8 °F 39.0 °F 93% 30.14 in 4.0 mi North 8.1 mph - N/A   Overcast
5:53 AM 39.9 °F 35.8 °F 39.0 °F 97% 30.17 in 3.0 mi NNE 5.8 mph - N/A   Overcast
6:13 AM 39.2 °F 33.6 °F 39.2 °F 100% 30.15 in 2.5 mi NE 8.1 mph - N/A   Overcast
6:26 AM 39.2 °F 35.0 °F 39.2 °F 100% 30.14 in 3.0 mi NNE 5.8 mph - N/A   Overcast
6:34 AM 39.2 °F 33.6 °F 39.2 °F 100% 30.14 in 2.5 mi NNE 8.1 mph - N/A   Overcast
6:53 AM 39.0 °F 34.0 °F 39.0 °F 100% 30.16 in 2.0 mi NE 6.9 mph - N/A   Overcast
7:38 AM 39.2 °F 34.2 °F 39.2 °F 100% 30.16 in 3.0 mi ENE 6.9 mph - N/A   Overcast
7:53 AM 39.9 °F 35.1 °F 37.9 °F 93% 30.18 in 5.0 mi ENE 6.9 mph - N/A   Overcast
8:53 AM 39.9 °F 36.7 °F 39.0 °F 97% 30.21 in 7.0 mi NNE 4.6 mph - N/A   Overcast
9:27 AM 39.2 °F 33.0 °F 39.2 °F 100% 30.21 in 2.5 mi North 9.2 mph - N/A   Overcast
9:45 AM 39.2 °F 32.0 °F 39.2 °F 100% 30.20 in 3.0 mi North 11.5 mph - N/A   Overcast
9:53 AM 39.9 °F 34.5 °F 37.9 °F 93% 30.23 in 4.0 mi North 8.1 mph - N/A   Overcast
10:38 AM 39.2 °F 32.0 °F 37.4 °F 93% 30.21 in 7.0 mi NNE 11.5 mph - N/A   Overcast
10:53 AM 39.9 °F 35.1 °F 39.0 °F 97% 30.22 in 7.0 mi NNE 6.9 mph - N/A   Overcast
11:53 AM 41.0 °F 36.4 °F 39.0 °F 93% 30.19 in 10.0 mi North 6.9 mph - N/A   Overcast
12:53 PM 39.9 °F 35.1 °F 37.9 °F 93% 30.17 in 10.0 mi North 6.9 mph - N/A   Overcast
1:53 PM 39.9 °F 35.8 °F 37.9 °F 93% 30.14 in 10.0 mi NNE 5.8 mph - N/A   Overcast
2:53 PM 39.0 °F 34.0 °F 37.9 °F 96% 30.15 in 5.0 mi NNE 6.9 mph - 0.01 in Rain Light Rain
3:53 PM 39.0 °F 34.0 °F 37.0 °F 93% 30.13 in 7.0 mi NNE 6.9 mph - 0.01 in Rain Light Rain
4:53 PM 39.0 °F 34.0 °F 37.0 °F 93% 30.12 in 6.0 mi NNE 6.9 mph - 0.01 in Rain Light Rain
5:53 PM 37.9 °F 34.4 °F 37.0 °F 97% 30.13 in 4.0 mi Variable 4.6 mph - 0.11 in Rain Heavy Rain
6:53 PM 37.9 °F 32.1 °F 37.0 °F 97% 30.17 in 10.0 mi NNW 8.1 mph - 0.05 in   Overcast
7:00 PM 37.4 °F 30.8 °F 37.4 °F 100% 30.15 in 10.0 mi NNW 9.2 mph - N/A   Overcast
7:14 PM 37.4 °F 31.4 °F 37.4 °F 100% 30.15 in 10.0 mi NNW 8.1 mph - N/A   Overcast
7:53 PM 37.0 °F 31.0 °F 36.0 °F 96% 30.19 in 5.0 mi NNW 8.1 mph - 0.00 in Rain Light Rain
8:53 PM 37.0 °F 31.0 °F 35.1 °F 93% 30.21 in 10.0 mi North 8.1 mph - 0.01 in   Overcast
9:53 PM 37.0 °F 31.0 °F 35.1 °F 93% 30.24 in 5.0 mi NNW 8.1 mph - N/A   Overcast
10:53 PM 36.0 °F 29.0 °F 35.1 °F 97% 30.25 in 10.0 mi NNW 9.2 mph - 0.01 in   Overcast
11:53 PM 36.0 °F 29.0 °F 35.1 °F 97% 30.27 in 9.0 mi NNW 9.2 mph - 0.01 in   Overcast